Preview of NWS' New Version of Forecast
This preview is not operational and should not be used for support decisions.
Latest weather observations around

Owensboro, Owensboro-Daviess County Airport (KOWB)

Using English Units (Switch to International System of Units)
Date/ Time (CDT) Wind (mph) Vis. (mi) Weather Sky Cond. Temp (°F) Rel. Humidity Wind Chill (°F) Heat Index (°F) Pressure Precip. (in)
Air Dwpt 6 hour Altimeter (inHg) Sea level (inHg) 1 hr 3 hr 6 hr
Max Min
Sep 23 03:56 SSW 8 10 Light Rain BKN055 OVC100 71 69     93%   72 29.99 29.98 0 0  
Sep 23 02:56 SW 7 10 Light Rain OVC100 71 69     93%   72 30 29.99 0    
Sep 23 01:56 Calm 10 Cloudy FEW045 BKN055 OVC080 73 69     87%   74 30.03 30.01 0    
Sep 23 00:56 NNW 3 10 Cloudy BKN055 BKN070 OVC085 73 69     87%   74 30.03 30.02 0   0
Sep 22 23:56 SW 7 10 Cloudy OVC060 78 63     60%   78 30.01 30      
Sep 22 22:56 SSW 10 10 Mostly Cloudy BKN080 BKN100 79 63     58%   79 30.01 30      
Sep 22 21:56 SSW 7 10 Clear CLR 76 62     62%   76 30 29.99      
Sep 22 20:56 SSW 7 10 Mostly Cloudy BKN070 78 61     56%   78 29.99 29.98      
Sep 22 19:56 S 7 10 Clear   80 61     52%   81 29.99 29.98      
Sep 22 18:56 SSW 8 10 Clear CLR 82 60     47%   82 29.98 29.97      
Sep 22 17:56 SSW 11 10 Mostly Clear FEW070 87 61     42%   87 29.98 29.97      
Sep 22 16:56 SW 14 10 Mostly Clear FEW070 88 60     39%   88 29.98 29.97      
Sep 22 15:56 SW 17 10 Mostly Cloudy BKN075 89 60     38%   89 29.99 29.98      
Sep 22 14:56 SW 16 10 Mostly Clear FEW070 91 60     36%   91 30.01 30      
Sep 22 13:56 SW 13 10 Mostly Cloudy BKN065 88 60     39%   88 30.04 30.03      
Sep 22 12:56 SW 16 10 Mostly Cloudy BKN065 89 60     38%   89 30.06 30.05      
Sep 22 11:56 SW 22 10 Clear and Windy CLR 88 60     39%   88 30.08 30.06      
Sep 22 10:56 SW 17 10 Clear CLR 87 61     42%   87 30.1 30.09      
Sep 22 09:56 SSW 18 10 Clear CLR 82 61     49%   83 30.12 30.11      
Sep 22 08:56 SSW 11 10 Clear CLR 77 61     58%   77 30.14 30.13      
Sep 22 07:56 S 7 10 Clear CLR 68 60     76%     30.13 30.13      
Sep 22 06:56 SE 5 10 Clear CLR 64 58     81%     30.13 30.12      
Sep 22 05:56 Calm 10 Clear CLR 64 58     81%     30.13 30.12      
Sep 22 04:56 SSE 5 10 Clear CLR 65 58     78%     30.13 30.11      
Sep 22 03:56 SSE 5 10 Clear CLR 65 58     78%     30.12 30.11      
Sep 22 02:56 SE 5 10 Clear CLR 67 57     71%     30.12 30.11      
Sep 22 01:56 SSE 3 8 Clear CLR 67 57     71%     30.12 30.11      
Sep 22 00:56 SE 3 10 Clear CLR 68 58     70%     30.12 30.11      
Sep 21 23:56 S 5 10 Clear CLR 68 57     68%     30.14 30.12      
Sep 21 22:56 SSE 5 10 Clear CLR 72 57     59%   72 30.13 30.12      
Sep 21 21:56 Calm 10 Clear CLR 73 56     55%   73 30.14 30.13      
Sep 21 20:56 SW 5 10 Clear CLR 74 56     53%   74 30.14 30.13      
Sep 21 19:56 SSE 7 10 Clear CLR 78 55     45%   78 30.13 30.12      
Sep 21 18:56 S 5 10 Clear CLR 79 56     45%   79 30.12 30.11      
Sep 21 17:56 SSW 7 10 Clear CLR 87 56     35%   86 30.12 30.11      
Sep 21 16:56 S 9 10 Clear CLR 90 55     31%   88 30.12 30.11      
Sep 21 15:56 S 9 10 Clear CLR 92 55     29%   90 30.13 30.12      
Sep 21 14:56 SSW 13 10 Clear CLR 92 56     30%   90 30.15 30.14      
Sep 21 13:56 SSW 11 10 Clear CLR 91 56     31%   89 30.17 30.16      
Sep 21 12:56 SSW 11 10 Clear CLR 90 57     33%   89 30.2 30.19      
Sep 21 11:56 SSW 10 10 Clear CLR 88 59     38%   87 30.22 30.22      
Sep 21 10:56 SSW 11 10 Clear CLR 86 61     43%   86 30.24 30.23      
Sep 21 09:56 SSW 11 10 Clear CLR 82 60     47%   82 30.25 30.24      
Sep 21 08:56 SSW 9 10 Clear CLR 76 62     62%   76 30.26 30.25      
Sep 21 07:56 S 7 10 Clear CLR 72 62     71%   72 30.25 30.24      
Sep 21 06:56 S 5 10 Clear CLR 70 63     78%     30.23 30.22      
Sep 21 05:56 SSE 6 10 Clear CLR 71 63     76%   71 30.22 30.21      
Sep 21 04:56 SSE 5 10 Clear CLR 71 64     79%   72 30.21 30.2      
Sep 21 03:56 SSE 3 10 Clear CLR 71 64     79%   72 30.2 30.19      
Sep 21 02:56 SSE 6 10 Clear CLR 71 64     79%   72 30.19 30.18      
Sep 21 02:08 SSE 3 4 Haze CLR 72 64     78%   72 30.18        
Sep 21 02:05 SSE 3 0.75 Haze CLR 72 64     78%   72 30.18        
Sep 21 01:56 SSE 5 10 Clear CLR 71 64     79%   72 30.18 30.17      
Sep 21 00:56 SE 5 10 Clear CLR 71 64     79%   72 30.18 30.17      
Sep 20 23:56 S 5 10 Clear CLR 72 65     79%   73 30.18 30.17      
Sep 20 22:56 SE 6 10 Clear CLR 74 65     74%   74 30.18 30.16      
Sep 20 21:56 SE 5 10 Clear CLR 75 65     71%   76 30.18 30.17      
Sep 20 20:56 SSE 5 10 Clear CLR 76 65     69%   76 30.18 30.17      
Sep 20 19:56 SE 5 10 Clear CLR 77 65     66%   78 30.16 30.15      
Sep 20 18:56 S 7 10 Clear   81 65     58%   83 30.14 30.14      
Sep 20 17:56 S 7 10 Partly Cloudy SCT050 86 66     51%   88 30.13 30.11      
Sep 20 16:56 S 9 10 Clear   88 67     50%   91 30.12 30.11      
Sep 20 15:56 SSW 8 10 Partly Cloudy SCT049 88 67     50%   91 30.13 30.12      
Sep 20 14:56 SSW 8 10 Partly Cloudy SCT065 89 67     48%   92 30.14 30.13      
Sep 20 13:56 SW 9 10 Mostly Cloudy BKN049 90 67     47%   93 30.15 30.14      
Sep 20 12:56 SSW 11 10 Mostly Cloudy BKN045 88 67     50%   91 30.17 30.16      
Sep 20 11:56 SW 10 10 Mostly Cloudy BKN041 85 65     51%   87 30.18 30.17      
Sep 20 10:56 SSW 11 10 Clear CLR 84 64     51%   85 30.19 30.18      
Sep 20 09:56 SSW 14 10 Clear CLR 81 63     54%   82 30.19 30.18      
Sep 20 08:56 SSW 13 10 Partly Cloudy SCT038 78 63     60%   78 30.19 30.18      
Sep 20 07:56 S 7 10 Mostly Cloudy BKN034 74 64     71%   74 30.18 30.17      
Sep 20 06:56 SSE 6 10 Clear CLR 71 66     84%   72 30.17 30.16      
Sep 20 05:56 S 7 10 Mostly Clear FEW055 71 67     87%   72 30.15 30.14      
Sep 20 04:56 SSE 6 10 Mostly Cloudy BKN043 BKN050 73 68     84%   74 30.13 30.12      
Sep 20 03:56 S 5 10 Cloudy OVC047 73 68     84%   74 30.12 30.11      
Sep 20 02:56 S 7 10 Clear CLR 72 68     87%   73 30.12 30.11      
Sep 20 01:56 S 5 10 Mostly Cloudy BKN065 73 67     81%   74 30.11 30.1      
May 15 05:56 ESE 3 10 Clear CLR 68 63     84%     29.91 29.93      
May 15 03:56 Calm 10 Clear CLR 72 63     73%   72 29.92 29.93      
May 14 16:56 SSW 10 10 Mostly Clear FEW070 90        %     29.9 29.91      
May 14 11:56 WNW 11 10 Partly Cloudy SCT055 89        %     30.02 30.03      
May 14 07:56 SSW 7 10 Clear CLR 76        %     30.03 30.04      
May 13 04:56 S 3 10 Clear CLR 67        %     30.04 30.06      
May 12 09:56   10 Clear CLR 81        %     30.09 30.1      
May 12 03:56 S 8 10 Clear CLR 69        %     30.03 30.04      
May 12 02:56 S 7 10 Clear CLR 69        %     30.02 30.03      
May 11 14:56 SSW 16 10 Clear CLR 87        %     29.97 29.99      
Jun 12 02:56 SE 3 10 Clear CLR 73 66     79%   74 30.05 30.06      
Jun 11 21:56 SSE 7 10 Clear   78 66     67%   79 30.04 30.05      
Jun 09 13:56 SSW 9 10 Clear CLR 82 55     40%   81 29.95 29.98      
Jun 09 04:56 Calm 10 Clear CLR 57 54     89%     29.94 29.96      
Jun 08 12:56 Calm 10 Partly Cloudy SCT050 72 50     46%   71 30 30.02      
Jun 08 09:56 NNE 9 10 Mostly Cloudy BKN033 68 51     55%     30.02 30.04      
Jun 07 20:56 ENE 13 10 Clear CLR 67 52     59%     30 30.03      
Jun 07 14:56 ENE 10 10 Partly Cloudy SCT060 76 54     47%   75 29.97 30      
Jun 06 02:45 NW 3 10 Mostly Cloudy BKN020 72 70     94%   73 29.81